{"data":{"norad_id":63312,"epoch":"2026-09-20T18:03:27.522432Z","epoch_age_seconds":137059,"freshness":"FRESH","line1":"1 63312U 25057F   26263.75240188  .00161454  00000+0  12358-2 0  9999","line2":"2 63312  43.0000 168.9596 0001859 260.3475  99.7182 15.70871631 87884","mean_motion":15.70871631,"eccentricity":0.0001859,"inclination_deg":43,"raan_deg":168.9596,"arg_perigee_deg":260.3475,"mean_anomaly_deg":99.7182,"bstar":0.0012358,"rev_number":8788,"period_min":91.668852602762,"perigee_km":355.15270447395,"apogee_km":357.65660706156,"semimajor_km":6734.5416557678,"source":"CELESTRAK","updated_at":"2026-09-21T09:00:34.967949Z"}}